Time,TemperatureF,DewpointF,PressureIn,WindDirection,WindDirectionDegrees,WindSpeedMPH,WindSpeedGustMPH,Humidity,HourlyPrecipIn,Conditions,Clouds,dailyrainin,SoftwareType,DateUTC
2013-04-22 00:00:00,47.0,-99.9,-100.00,North,350,20.0,35.0,-999,-99.99,,,-99.99,,2013-04-22 07:00:00,
2013-04-22 01:00:00,47.0,-99.9,-100.00,NNW,345,14.0,22.0,-999,-99.99,,,-99.99,,2013-04-22 08:00:00,
2013-04-22 02:00:00,44.0,-99.9,-100.00,North,11,14.0,22.0,-999,-99.99,,,-99.99,,2013-04-22 09:00:00,
2013-04-22 03:00:00,42.0,-99.9,-100.00,NNE,15,17.0,21.0,-999,-99.99,,,-99.99,,2013-04-22 10:00:00,
2013-04-22 04:00:00,41.0,-99.9,-100.00,North,3,14.0,20.0,-999,-99.99,,,-99.99,,2013-04-22 11:00:00,
2013-04-22 05:00:00,39.0,-99.9,-100.00,NNE,14,10.0,12.0,-999,-99.99,,,-99.99,,2013-04-22 12:00:00,
2013-04-22 06:00:00,38.0,-99.9,-100.00,NNE,14,12.0,15.0,-999,-99.99,,,-99.99,,2013-04-22 13:00:00,
2013-04-22 07:00:00,39.0,-99.9,-100.00,North,2,12.0,13.0,-999,-99.99,,,-99.99,,2013-04-22 14:00:00,
2013-04-22 08:00:00,42.0,-99.9,-100.00,North,10,13.0,17.0,-999,-99.99,,,-99.99,,2013-04-22 15:00:00,
2013-04-22 10:00:00,49.0,-99.9,-100.00,NE,34,18.0,27.0,-999,-99.99,,,-99.99,,2013-04-22 17:00:00,
2013-04-22 11:00:00,52.0,-99.9,-100.00,NNE,30,16.0,31.0,-999,-99.99,,,-99.99,,2013-04-22 18:00:00,
2013-04-22 12:00:00,54.0,-99.9,-100.00,NNE,26,16.0,29.0,-999,-99.99,,,-99.99,,2013-04-22 19:00:00,
2013-04-22 14:00:00,58.0,-99.9,-100.00,NNE,29,14.0,23.0,-999,-99.99,,,-99.99,,2013-04-22 21:00:00,
2013-04-22 15:00:00,57.0,-99.9,-100.00,NE,43,10.0,21.0,-999,-99.99,,,-99.99,,2013-04-22 22:00:00,
2013-04-22 16:00:00,58.0,-99.9,-100.00,NNE,17,12.0,21.0,-999,-99.99,,,-99.99,,2013-04-22 23:00:00,
2013-04-22 17:00:00,58.0,-99.9,-100.00,North,354,8.0,16.0,-999,-99.99,,,-99.99,,2013-04-23 00:00:00,
2013-04-22 18:00:00,57.0,-99.9,-100.00,North,358,10.0,17.0,-999,-99.99,,,-99.99,,2013-04-23 01:00:00,
2013-04-22 19:00:00,56.0,-99.9,-100.00,North,6,7.0,13.0,-999,-99.99,,,-99.99,,2013-04-23 02:00:00,
2013-04-22 20:00:00,55.0,-99.9,-100.00,ESE,102,2.0,3.0,-999,-99.99,,,-99.99,,2013-04-23 03:00:00,
2013-04-22 21:00:00,54.0,-99.9,-100.00,SSE,163,7.0,7.0,-999,-99.99,,,-99.99,,2013-04-23 04:00:00,
2013-04-22 22:00:00,53.0,-99.9,-100.00,SSW,198,10.0,12.0,-999,-99.99,,,-99.99,,2013-04-23 05:00:00,
2013-04-22 23:00:00,50.0,-99.9,-100.00,SW,233,12.0,12.0,-999,-99.99,,,-99.99,,2013-04-23 06:00:00,